Vorticity
nan nan nan nan nan nan nan nan nan nan nan nan nan nan nan nan nan nan nan nan nan nan nan nan nan nan nan nan nan nan nan nan nan nan nan nan nan nan nan nan nan nan nan nan nan
nan 7 7 6 6 6 7 7 7 7 7 6 7 7 7 10 16 18 15 9 9 4 0 6 5 10 10 14 2 7 9 12 6 9 8 6 9 11 8 5 6 10 15 11 nan
nan 7 7 6 6 6 7 7 7 7 6 6 7 8 7 12 18 21 10 7 5 3 1 3 8 5 16 5 10 5 2 8 3 9 7 9 6 5 11 12 10 8 7 5 nan
nan 7 7 7 7 7 7 7 7 7 6 7 7 9 14 11 10 14 12 5 3 2 8 8 9 7 9 8 9 1 5 1 6 3 7 16 4 -1 8 8 13 14 10 7 nan
nan 7 7 7 7 7 7 7 7 7 6 7 8 9 17 8 13 10 8 6 2 4 7 10 11 11 1 6 15 3 10 4 9 5 8 0 9 6 2 13 9 11 9 7 nan
nan 7 7 7 7 7 7 7 7 7 7 7 8 14 11 5 14 12 5 3 2 6 8 6 4 6 6 9 6 4 11 13 7 5 7 7 2 11 1 12 8 8 7 7 nan
nan 7 7 7 7 7 7 7 7 7 7 7 10 13 8 16 8 9 5 2 5 3 5 6 6 6 5 11 -3 13 -1 8 9 17 10 3 1 0 6 13 6 8 8 7 nan
nan 8 7 7 7 7 8 8 8 8 10 12 11 9 8 15 8 9 5 6 9 5 1 2 8 14 10 13 15 5 2 11 14 3 9 0 5 -2 11 14 6 6 9 8 nan
nan 9 8 7 8 8 8 8 13 14 15 12 10 5 6 8 12 8 6 5 5 7 5 5 9 8 16 15 8 6 13 9 21 15 -1 -1 17 15 14 6 7 6 8 8 nan
nan 9 8 8 8 8 13 19 13 19 16 6 8 9 20 10 12 9 8 5 4 6 16 8 10 10 6 4 5 9 12 14 10 10 4 14 12 22 18 3 8 7 7 8 nan
nan 9 8 8 7 8 19 22 13 13 8 7 5 6 9 10 9 8 9 7 9 8 15 18 11 9 2 -3 8 11 5 10 6 8 9 24 19 15 12 7 8 6 7 7 nan
nan 9 9 9 9 12 14 -1 2 10 23 11 -3 5 6 8 4 11 7 3 3 24 12 -1 3 6 9 16 1 -1 13 12 7 16 11 7 17 14 9 10 10 6 8 8 nan
nan 9 9 9 14 16 11 -4 -6 11 18 24 16 7 5 4 7 15 6 0 7 13 1 11 -0 8 11 13 15 6 7 11 8 5 12 5 4 6 8 16 8 11 12 8 nan
nan 10 9 11 16 15 13 9 3 7 18 29 12 13 12 5 13 16 9 0 8 5 2 6 10 16 22 9 1 6 8 11 19 10 8 8 -0 3 10 10 6 14 9 11 nan
nan 10 13 6 10 11 9 11 11 11 16 19 11 9 13 4 11 17 5 6 13 0 -3 -2 5 8 15 6 1 4 8 13 15 5 -2 9 14 9 10 10 7 13 9 10 nan
nan 10 14 14 9 4 5 14 11 7 13 7 14 12 5 4 -1 8 10 3 4 13 10 9 10 1 9 3 9 5 9 10 10 2 9 9 2 8 6 1 14 12 6 11 nan
nan 13 6 7 12 10 11 13 8 12 8 7 11 8 7 6 8 7 9 6 8 9 9 17 23 14 8 6 12 1 5 15 8 5 15 10 8 12 13 2 4 10 18 10 nan
nan 19 11 -0 2 11 15 10 12 8 10 19 7 9 7 13 12 4 3 16 13 -2 8 10 15 21 4 6 7 15 8 12 2 10 21 12 19 17 13 9 9 2 5 12 nan
nan 12 10 14 11 7 13 6 -1 18 19 1 11 10 1 5 13 15 8 14 10 -10 7 11 7 10 6 9 8 9 9 6 11 15 11 16 16 17 10 5 5 11 14 9 nan
nan 13 18 17 10 5 8 -1 4 12 9 13 12 10 16 7 5 6 11 6 3 17 2 12 12 7 5 12 11 1 7 10 15 7 6 13 9 5 7 8 2 5 9 13 nan
nan 14 17 14 4 7 11 10 8 6 10 6 6 9 14 15 -1 0 13 22 3 23 4 -2 9 17 8 5 8 10 10 10 11 7 13 5 10 16 13 2 8 10 6 11 nan
nan 20 11 6 4 9 7 1 6 12 10 4 16 10 8 15 18 9 11 -4 13 10 20 6 7 4 13 5 3 9 12 7 7 7 9 10 13 20 2 6 6 11 16 10 nan
nan 16 12 7 4 7 5 7 8 7 4 10 10 5 9 4 24 19 10 3 12 8 5 13 11 5 10 16 2 4 2 11 11 5 6 11 12 2 5 11 11 7 8 8 nan
nan 9 12 10 5 5 12 14 6 8 5 7 10 14 15 11 -4 5 6 20 6 7 8 10 4 6 18 11 -6 4 2 6 8 8 7 4 1 10 20 12 9 7 6 8 nan
nan 12 13 12 11 7 6 13 11 9 15 8 8 10 7 6 13 6 6 7 11 5 5 5 3 4 5 1 13 12 11 7 8 7 3 8 20 14 8 7 7 7 9 13 nan
nan 13 16 12 9 8 9 10 16 12 9 9 9 9 12 13 12 2 12 9 15 5 3 8 15 13 9 7 0 2 16 20 17 12 10 15 16 4 5 5 7 9 12 12 nan
nan nan nan nan nan nan nan nan nan nan nan nan nan nan nan nan nan nan nan nan nan nan nan nan nan nan nan nan nan nan nan nan nan nan nan nan nan nan nan nan nan nan nan nan nan
CAPE
1 1 0 1 1 2 3 2 2 1 0 0 0 0 0 0 0 0 0 0 0 119 0 25 185 590 1230 1379 536 217 1141 1025 43 32 0 1 0 0 0 16 0 9 103 138 37
1 1 2 3 2 2 1 2 1 1 0 0 0 0 0 0 0 0 0 89 2 12 0 649 938 1039 1272 884 12 310 879 417 21 29 13 28 11 4 1 206 123 7 167 107 46
1 1 3 2 4 2 2 2 1 0 0 0 0 0 0 0 0 0 0 0 0 0 345 709 666 1064 1004 585 12 91 617 43 111 21 4 11 24 79 132 162 318 4 84 40 46
1 1 2 1 2 2 2 2 1 0 0 0 0 0 0 0 0 0 0 0 1 10 731 600 839 1005 174 876 161 202 574 220 245 202 245 103 31 30 24 8 256 43 71 37 32
1 1 2 2 2 2 2 1 1 0 0 0 0 0 0 0 0 0 0 0 0 231 379 400 632 577 653 518 525 387 428 118 88 382 323 38 99 110 106 175 224 72 26 19 8
0 2 2 2 2 2 2 0 0 0 0 0 0 1 0 0 0 0 0 0 63 758 467 356 590 742 772 556 258 935 560 331 179 343 247 258 410 267 337 448 277 77 0 4 1
1 2 3 2 2 1 0 0 0 0 0 0 0 0 0 0 0 0 0 1 445 754 700 746 482 654 1118 754 745 385 709 2 430 410 507 302 173 234 549 595 394 215 0 0 2
1 2 4 1 1 0 0 0 0 0 0 0 0 0 0 0 0 0 4 422 614 687 697 525 539 722 854 738 379 573 141 0 285 184 1 2 308 10 173 663 499 353 4 0 0
1 3 3 2 0 0 0 0 0 0 0 0 0 0 0 0 0 0 30 450 612 886 866 680 510 1026 1257 963 582 225 671 348 349 439 477 431 222 529 402 641 563 464 88 0 0
2 3 1 0 0 0 0 0 0 0 0 0 0 0 0 0 0 0 5 135 171 420 498 748 444 428 603 367 426 226 160 569 444 288 110 584 841 966 626 585 634 646 401 7 0
2 2 2 1 0 0 0 0 0 0 0 0 0 0 0 0 0 0 0 87 157 394 558 269 414 599 499 598 131 193 141 34 33 0 104 39 515 658 524 447 612 752 706 458 115
2 3 0 0 0 0 0 0 0 0 0 0 0 0 0 0 0 0 0 65 175 451 125 468 253 202 253 180 51 80 80 39 6 9 297 18 42 440 340 322 396 519 729 809 715
3 2 0 0 0 0 0 0 0 0 0 0 0 0 0 0 0 21 15 65 218 486 270 116 220 347 340 7 88 0 2 27 14 0 0 0 0 0 15 129 268 337 673 678 827
2 1 0 0 0 0 0 0 0 0 0 0 0 0 0 0 0 9 25 64 261 204 0 1 251 575 97 38 58 1 0 8 28 6 38 46 10 76 1 0 2 59 264 412 640
3 3 0 0 0 0 0 0 0 0 0 0 0 0 0 0 4 27 57 120 236 396 661 617 308 375 122 118 0 47 0 9 61 92 4 17 51 0 0 1 5 3 25 73 148
1 2 0 0 0 0 0 0 0 0 0 11 0 0 2 0 16 84 77 98 230 402 372 298 360 430 46 0 0 0 2 58 80 27 62 39 64 76 15 4 41 2 15 7 48
1 1 1 0 0 0 0 0 0 0 37 21 0 1 17 19 29 153 64 138 176 178 35 29 157 395 12 1 24 11 15 144 76 112 83 29 83 112 63 31 58 161 29 55 121
0 0 0 0 0 0 0 0 0 6 20 42 23 11 21 83 77 213 223 156 256 8 68 61 145 204 0 0 0 7 6 28 151 23 34 15 185 103 93 40 171 100 61 86 229
0 0 0 0 0 0 0 0 24 129 5 53 47 101 60 55 212 259 126 180 89 92 280 84 43 0 0 0 0 1 44 0 0 27 108 11 74 147 158 170 0 0 0 23 79
0 0 0 0 0 0 0 0 0 8 0 0 68 77 96 188 277 278 174 0 9 106 220 108 93 0 0 0 0 0 0 0 3 42 128 70 89 5 11 9 2 0 0 0 5
0 0 0 0 0 0 0 0 34 0 0 0 30 233 116 74 143 81 181 213 171 96 108 2 64 105 0 0 0 0 0 0 5 0 46 72 11 12 36 6 0 0 0 6 217
0 0 0 0 0 0 0 0 0 19 1 0 0 6 113 210 217 244 260 43 254 79 0 97 122 113 31 0 0 0 0 0 0 0 0 0 24 84 6 0 0 0 107 174 207
0 0 0 0 0 0 1 0 2 0 3 0 0 72 124 17 46 326 111 40 91 4 96 123 48 23 39 0 0 1 0 0 0 1 11 25 97 31 51 8 77 88 333 561 782
0 0 0 0 0 9 72 36 1 0 0 0 0 0 44 243 279 308 249 0 0 0 237 0 0 0 5 6 5 1 0 0 0 0 4 14 38 86 340 322 313 337 560 561 771
0 0 0 0 0 0 0 90 61 53 0 0 0 0 0 92 164 13 103 0 0 0 0 0 0 0 0 0 0 0 0 0 28 10 2 0 39 423 490 506 480 436 451 529 1042
0 53 0 0 0 0 0 1 62 94 60 1 0 14 0 8 335 98 0 0 8 0 0 0 1 0 0 0 0 0 3 0 0 4 16 41 380 276 221 114 135 372 345 1027 940
0 8 31 0 0 0 1 0 49 63 19 26 7 11 47 31 2 54 2 3 7 8 0 2 3 0 0 0 0 9 14 3 0 0 0 6 280 153 73 11 108 282 607 640 626